DW5310 Weather Reports


time (UTC)temp
C
wind
direction
speed
KPH
gust
KPH
rain 1hr
cm
rain 24hr
cm
rain mn
cm
humidity
%
barometer
mb
20260831175507 20 66 6.4 12.9 0.00 0.00 0.00 64 1009.5
20260831174506 20 86 1.6 14.5 0.00 0.00 0.00 66 1009.5
20260831174006 20 314 0.0 12.9 0.00 0.00 0.00 68 1009.5
20260831173507 19 104 1.6 11.3 0.00 0.00 0.00 68 1009.5
20260831173006 19 157 3.2 12.9 0.00 0.00 0.00 70 1009.5
20260831172506 18 84 3.2 12.9 0.00 0.00 0.00 70 1010.5
20260831172006 18 284 0.0 16.1 0.00 0.00 0.00 71 1010.5
20260831171506 18 73 1.6 16.1 0.00 0.00 0.00 72 1010.5
20260831171006 18 96 0.0 12.9 0.00 0.00 0.00 72 1010.5
20260831170506 18 123 1.6 12.9 0.00 0.00 0.00 73 1010.5
20260831170006 18 45 1.6 9.7 0.00 0.00 0.00 75 1010.5
20260831165507 17 79 0.0 0.0 0.00 0.00 0.00 77 1010.5
20260831165007 17 8 0.0 0.0 0.00 0.00 0.00 78 1010.5
20260831164506 17 26 0.0 0.0 0.00 0.00 0.00 78 1010.5
20260831164006 17 305 0.0 0.0 0.00 0.00 0.00 79 1010.5
20260831163506 16 350 0.0 8.0 0.00 0.00 0.00 80 1010.5
20260831163006 16 90 3.2 8.0 0.00 0.00 0.00 81 1010.5
20260831162506 16 35 0.0 0.0 0.00 0.00 0.00 82 1010.5
20260831162006 16 58 3.2 0.0 0.00 0.00 0.00 82 1010.5
20260831161507 16 77 0.0 0.0 0.00 0.00 0.00 83 1010.5
20260831160506 15 148 0.0 0.0 0.00 0.00 0.00 84 1010.5
20260831160007 15 35 0.0 0.0 0.00 0.00 0.00 86 1010.5
20260831155507 15 35 0.0 0.0 0.00 0.00 0.00 87 1010.5
20260831155006 15 57 0.0 8.0 0.00 0.00 0.00 87 1010.5
20260831154506 15 35 0.0 8.0 0.00 0.00 0.00 88 1010.5
20260831153506 14 148 0.0 4.8 0.00 0.00 0.00 89 1010.5
20260831153006 14 35 0.0 4.8 0.00 0.00 0.00 89 1010.5
20260831152507 14 139 0.0 9.7 0.00 0.00 0.00 89 1010.5
20260831152006 13 161 0.0 9.7 0.00 0.00 0.00 90 1010.5
20260831151506 13 215 0.0 9.7 0.00 0.00 0.00 90 1010.5
20260831151006 13 35 0.0 0.0 0.00 0.00 0.00 91 1010.5
20260831150506 13 35 0.0 0.0 0.00 0.00 0.00 91 1010.5
20260831150006 13 35 0.0 0.0 0.00 0.00 0.00 92 1010.5
20260831145510 13 35 0.0 9.7 0.00 0.00 0.00 92 1010.5
20260831145006 13 92 0.0 9.7 0.00 0.00 0.00 92 1010.5
20260831144006 12 35 0.0 0.0 0.00 0.00 0.00 93 1010.5
20260831143505 12 100 0.0 0.0 0.00 0.00 0.00 93 1010.5
20260831143007 12 35 0.0 0.0 0.00 0.00 0.00 93 1010.5
20260831142506 12 37 0.0 0.0 0.00 0.00 0.00 93 1010.5
20260831142006 12 43 0.0 0.0 0.00 0.00 0.00 92 1010.5
20260831141506 11 39 0.0 0.0 0.00 0.00 0.00 93 1010.5
20260831140506 11 80 0.0 0.0 0.00 0.00 0.00 92 1010.5
20260831140006 11 80 0.0 0.0 0.00 0.00 0.00 92 1010.5
20260831135506 11 58 0.0 0.0 0.00 0.00 0.00 92 1010.5
20260831134505 11 58 0.0 0.0 0.00 0.00 0.00 92 1010.5
20260831134006 11 58 0.0 0.0 0.00 0.00 0.00 92 1010.5
20260831133505 11 58 0.0 0.0 0.00 0.00 0.00 92 1010.5
20260831133006 11 58 0.0 0.0 0.00 0.00 0.00 91 1010.5
20260831132006 11 58 0.0 0.0 0.00 0.00 0.00 91 1010.5
20260831130506 11 102 0.0 0.0 0.00 0.00 0.00 91 1010.5
20260831130006 11 102 0.0 0.0 0.00 0.00 0.00 90 1010.5
20260831125506 11 139 0.0 0.0 0.00 0.00 0.00 90 1010.5
20260831125006 11 80 0.0 0.0 0.00 0.00 0.00 90 1010.5
20260831124506 12 80 0.0 0.0 0.00 0.00 0.00 90 1010.5
20260831124006 12 80 0.0 0.0 0.00 0.00 0.00 89 1010.5
20260831123006 12 80 0.0 0.0 0.00 0.00 0.00 89 1010.5
20260831122505 12 125 0.0 0.0 0.00 0.00 0.00 89 1010.5
20260831122006 12 80 0.0 0.0 0.00 0.00 0.00 89 1010.5
20260831121506 12 102 0.0 0.0 0.00 0.00 0.00 89 1010.5
20260831121006 12 102 0.0 0.0 0.00 0.00 0.00 89 1011.5
20260831120506 12 102 0.0 0.0 0.00 0.00 0.00 89 1011.5
20260831120006 12 102 0.0 0.0 0.00 0.00 0.00 89 1011.5
20260831115505 12 102 0.0 0.0 0.00 0.00 0.00 88 1011.5
20260831114506 12 102 0.0 0.0 0.00 0.00 0.00 88 1011.5
20260831114005 12 102 0.0 0.0 0.00 0.00 0.00 88 1012.5
20260831113505 12 102 0.0 0.0 0.00 0.00 0.00 88 1012.5
20260831113006 12 170 0.0 0.0 0.00 0.00 0.00 88 1012.5
20260831112505 12 170 0.0 0.0 0.00 0.00 0.00 87 1011.5
20260831112006 12 170 0.0 0.0 0.00 0.00 0.00 87 1011.5
20260831111506 12 170 0.0 0.0 0.00 0.00 0.00 87 1011.5
20260831110506 12 170 0.0 0.0 0.00 0.00 0.00 86 1012.5
20260831105506 13 170 0.0 0.0 0.00 0.00 0.00 86 1012.5
20260831105005 13 170 0.0 0.0 0.00 0.00 0.00 85 1012.5
20260831104506 13 215 0.0 0.0 0.00 0.00 0.00 85 1012.5
20260831104005 13 192 0.0 0.0 0.00 0.00 0.00 85 1012.5
20260831103506 13 192 0.0 0.0 0.00 0.00 0.00 85 1012.5
20260831102506 13 192 0.0 0.0 0.00 0.00 0.00 84 1012.5
20260831102006 13 192 0.0 0.0 0.00 0.00 0.00 84 1012.5
20260831101505 13 102 0.0 0.0 0.00 0.00 0.00 84 1012.5
20260831101006 13 102 0.0 0.0 0.00 0.00 0.00 84 1012.5
20260831100506 13 102 0.0 0.0 0.00 0.00 0.00 84 1012.5
20260831100006 13 102 0.0 0.0 0.00 0.00 0.00 84 1012.5
20260831095505 13 192 0.0 0.0 0.00 0.00 0.00 83 1012.5
20260831095005 13 192 0.0 0.0 0.00 0.00 0.00 83 1012.5
20260831094505 13 192 0.0 0.0 0.00 0.00 0.00 83 1012.5
20260831094005 13 192 0.0 0.0 0.00 0.00 0.00 83 1012.5
20260831093505 13 192 0.0 0.0 0.00 0.00 0.00 83 1012.5
20260831093005 13 192 0.0 0.0 0.00 0.00 0.00 83 1012.5
20260831092005 13 192 0.0 0.0 0.00 0.00 0.00 82 1012.5
20260831091505 13 192 0.0 0.0 0.00 0.00 0.00 82 1012.5
20260831090005 13 192 0.0 0.0 0.00 0.00 0.00 81 1011.5
20260831085505 13 170 0.0 0.0 0.00 0.00 0.00 81 1012.5
20260831085006 14 170 0.0 0.0 0.00 0.00 0.00 81 1012.5
20260831084505 14 170 0.0 0.0 0.00 0.00 0.00 80 1012.5
20260831084005 14 170 0.0 0.0 0.00 0.00 0.00 80 1012.5
20260831083505 14 85 0.0 0.0 0.00 0.00 0.00 80 1012.5
20260831082505 14 238 0.0 0.0 0.00 0.00 0.00 79 1013.5
20260831082005 14 238 0.0 0.0 0.00 0.00 0.00 79 1013.5
20260831081505 14 238 0.0 0.0 0.00 0.00 0.00 79 1013.5
20260831081005 14 238 0.0 0.0 0.00 0.00 0.00 79 1013.5
20260831080505 14 238 0.0 0.0 0.00 0.00 0.00 78 1013.5
20260831080005 14 238 0.0 0.0 0.00 0.00 0.00 78 1013.5
20260831075505 14 238 0.0 0.0 0.00 0.00 0.00 78 1013.5
20260831075005 14 238 0.0 0.0 0.00 0.00 0.00 78 1013.5
20260831074505 14 238 0.0 0.0 0.00 0.00 0.00 78 1013.5
20260831074006 15 238 0.0 0.0 0.00 0.00 0.00 77 1013.5
20260831073506 15 238 0.0 0.0 0.00 0.00 0.00 77 1013.5
20260831073005 15 238 0.0 0.0 0.00 0.00 0.00 77 1013.5
20260831072505 15 238 0.0 0.0 0.00 0.00 0.00 76 1014.5
20260831072005 15 238 0.0 0.0 0.00 0.00 0.00 75 1014.5
20260831071505 15 238 0.0 0.0 0.00 0.00 0.00 75 1014.5
20260831071006 15 238 0.0 0.0 0.00 0.00 0.00 75 1014.5
20260831065505 15 238 0.0 0.0 0.00 0.00 0.00 74 1014.5
20260831065005 15 238 0.0 0.0 0.00 0.00 0.00 74 1014.5
20260831064005 15 170 0.0 0.0 0.00 0.00 0.00 74 1014.5
20260831063505 15 201 0.0 0.0 0.00 0.00 0.00 73 1014.5
20260831063005 15 181 0.0 0.0 0.00 0.00 0.00 73 1014.5
20260831062505 15 92 0.0 0.0 0.00 0.00 0.00 73 1014.5
20260831061505 15 125 0.0 0.0 0.00 0.00 0.00 72 1014.5
20260831055505 16 305 0.0 0.0 0.00 0.00 0.00 71 1013.5
20260831055005 16 56 0.0 0.0 0.00 0.00 0.00 71 1013.5
20260831054505 16 141 0.0 0.0 0.00 0.00 0.00 70 1013.5
20260831054005 16 211 0.0 0.0 0.00 0.00 0.00 70 1014.5
20260831053005 16 102 0.0 0.0 0.00 0.00 0.00 69 1014.5
20260831052505 16 120 0.0 0.0 0.00 0.00 0.00 69 1014.5
20260831052006 16 43 0.0 0.0 0.00 0.00 0.00 68 1014.5
20260831051505 16 215 0.0 9.7 0.00 0.00 0.00 68 1014.5
20260831051005 16 282 0.0 9.7 0.00 0.00 0.00 68 1014.5
20260831050005 16 344 0.0 0.0 0.00 0.00 0.00 67 1014.5
20260831045504 16 144 0.0 0.0 0.00 0.00 0.00 67 1014.5
20260831045005 16 35 0.0 0.0 0.00 0.00 0.00 67 1014.5
20260831044504 16 184 0.0 9.7 0.00 0.00 0.00 67 1014.5
20260831043505 16 215 0.0 0.0 0.00 0.00 0.00 66 1014.5
20260831043005 16 101 0.0 0.0 0.00 0.00 0.00 66 1014.5
20260831042505 16 260 0.0 0.0 0.00 0.00 0.00 65 1014.5
20260831041504 17 269 0.0 0.0 0.00 0.00 0.00 64 1014.5
20260831041005 17 282 0.0 0.0 0.00 0.00 0.00 63 1014.5
20260831040504 17 282 0.0 0.0 0.00 0.00 0.00 63 1014.5
20260831040005 17 305 0.0 0.0 0.00 0.00 0.00 63 1014.5
20260831034505 17 192 0.0 0.0 0.00 0.00 0.00 62 1014.5
20260831034004 17 215 0.0 0.0 0.00 0.00 0.00 61 1015.5
20260831033505 17 269 0.0 4.8 0.00 0.00 0.00 61 1015.5
20260831033004 17 215 0.0 4.8 0.00 0.00 0.00 60 1015.5
20260831032505 17 284 0.0 4.8 0.00 0.00 0.00 60 1015.5
20260831032004 17 305 0.0 0.0 0.00 0.00 0.00 59 1015.5
20260831031504 17 192 0.0 0.0 0.00 0.00 0.00 59 1015.5
20260831031004 18 282 0.0 0.0 0.00 0.00 0.00 58 1015.5
20260831030504 18 35 0.0 0.0 0.00 0.00 0.00 58 1015.5
20260831030004 18 287 0.0 0.0 0.00 0.00 0.00 57 1015.5
20260831025504 18 260 0.0 0.0 0.00 0.00 0.00 57 1015.5
20260831025005 18 260 0.0 0.0 0.00 0.00 0.00 56 1015.5
20260831024504 18 260 0.0 0.0 0.00 0.00 0.00 56 1015.5
20260831024004 18 185 0.0 0.0 0.00 0.00 0.00 55 1015.5
20260831023504 18 192 0.0 0.0 0.00 0.00 0.00 55 1015.5
20260831023006 18 305 0.0 8.0 0.00 0.00 0.00 54 1015.5
20260831022505 18 236 0.0 8.0 0.00 0.00 0.00 54 1015.5
20260831022004 19 173 0.0 0.0 0.00 0.00 0.00 54 1015.5
20260831021504 19 119 0.0 0.0 0.00 0.00 0.00 53 1015.5
20260831021005 19 192 0.0 0.0 0.00 0.00 0.00 53 1015.5
20260831020504 19 287 0.0 24.1 0.00 0.00 0.00 52 1015.5
20260831015504 20 352 0.0 3.2 0.00 0.00 0.00 52 1015.5
20260831015004 20 81 0.0 9.7 0.00 0.00 0.00 51 1015.5
20260831014504 20 10 0.0 9.7 0.00 0.00 0.00 51 1015.5
20260831014004 20 215 0.0 8.0 0.00 0.00 0.00 51 1016.5
20260831013504 20 81 0.0 8.0 0.00 0.00 0.00 50 1016.5
20260831013004 20 199 1.6 8.0 0.00 0.00 0.00 50 1016.5
20260831012005 20 43 1.6 8.0 0.00 0.00 0.00 50 1016.5
20260831011504 20 38 0.0 9.7 0.00 0.00 0.00 50 1016.5
20260831011005 20 196 0.0 25.7 0.00 0.00 0.00 50 1016.5
20260831010504 20 93 1.6 25.7 0.00 0.00 0.00 49 1016.5
20260831010005 20 44 1.6 25.7 0.00 0.00 0.00 49 1016.5
20260831005004 20 78 0.0 19.3 0.00 0.00 0.00 49 1016.5
20260831003504 21 89 1.6 16.1 0.00 0.00 0.00 48 1016.5
20260831003005 21 106 0.0 16.1 0.00 0.00 0.00 48 1016.5
20260831002504 21 86 4.8 19.3 0.00 0.00 0.00 48 1016.5
20260831002004 21 25 3.2 19.3 0.00 0.00 0.00 48 1016.5
20260831001505 21 59 3.2 9.7 0.00 0.00 0.00 48 1016.5
20260831001004 21 248 0.0 11.3 0.00 0.00 0.00 48 1016.5
20260831000004 21 83 0.0 20.9 0.00 0.00 0.00 47 1016.5
20260830235504 21 156 8.0 20.9 0.00 0.00 0.00 47 1016.5
20260830234004 22 62 1.6 16.1 0.00 0.00 0.00 47 1015.5
20260830233504 22 30 1.6 22.5 0.00 0.00 0.00 47 1015.5
20260830232504 22 320 1.6 16.1 0.00 0.00 0.00 47 1016.5
20260830231504 22 311 0.0 16.1 0.00 0.00 0.00 48 1016.5
20260830231004 22 252 6.4 16.1 0.00 0.00 0.00 47 1016.5
20260830230504 22 279 4.8 16.1 0.00 0.00 0.00 47 1016.5
20260830230005 22 176 1.6 12.9 0.00 0.00 0.00 48 1016.5
20260830225504 22 156 0.0 11.3 0.00 0.00 0.00 47 1017.5
20260830225004 22 228 3.2 16.1 0.00 0.00 0.00 48 1017.5
20260830224504 22 305 8.0 16.1 0.00 0.00 0.00 46 1017.5
20260830224004 22 87 4.8 14.5 0.00 0.00 0.00 48 1017.5
20260830223504 22 319 3.2 14.5 0.00 0.00 0.00 48 1017.5
20260830223004 22 219 3.2 22.5 0.00 0.00 0.00 48 1017.5
20260830222504 22 262 3.2 22.5 0.00 0.00 0.00 48 1017.5
20260830222004 22 256 3.2 33.8 0.00 0.00 0.00 49 1017.5
20260830221504 21 350 9.7 33.8 0.00 0.00 0.00 48 1017.5
20260830220504 21 284 3.2 14.5 0.00 0.00 0.00 48 1017.5
20260830220004 22 305 3.2 14.5 0.00 0.00 0.00 49 1017.5
20260830215004 21 300 6.4 24.1 0.00 0.00 0.00 50 1018.5
20260830214504 21 79 9.7 19.3 0.00 0.00 0.00 50 1018.5
20260830214004 21 87 8.0 19.3 0.00 0.00 0.00 50 1018.5
20260830213004 21 12 6.4 19.3 0.00 0.00 0.00 50 1018.5
20260830212504 21 6 6.4 20.9 0.00 0.00 0.00 51 1018.5
20260830212003 21 18 9.7 24.1 0.00 0.00 0.00 51 1018.5
20260830211504 21 174 4.8 27.4 0.00 0.00 0.00 52 1018.5
20260830211004 21 68 9.7 27.4 0.00 0.00 0.00 52 1018.5
20260830210503 21 259 4.8 24.1 0.00 0.00 0.00 51 1018.5
20260830210003 21 32 8.0 19.3 0.00 0.00 0.00 53 1018.5
20260830205504 20 43 8.0 14.5 0.00 0.00 0.00 53 1018.5
20260830205004 20 305 6.4 14.5 0.00 0.00 0.00 54 1018.5
20260830204504 20 258 1.6 12.9 0.00 0.00 0.00 55 1018.5
20260830204004 20 230 3.2 12.9 0.00 0.00 0.00 55 1017.5
20260830203504 20 51 4.8 14.5 0.00 0.00 0.00 56 1017.5
20260830202504 19 305 1.6 12.9 0.00 0.00 0.00 58 1018.5
20260830202006 19 35 1.6 12.9 0.00 0.00 0.00 58 1018.5
20260830201506 18 69 1.6 16.1 0.00 0.00 0.00 57 1018.5
20260830201006 18 65 8.0 24.1 0.00 0.00 0.00 56 1018.5
20260830200006 18 48 8.0 24.1 0.00 0.00 0.00 60 1018.5
20260830195506 18 258 4.8 16.1 0.00 0.00 0.00 60 1018.5
20260830195007 18 260 8.0 16.1 0.00 0.00 0.00 59 1018.5
20260830194506 18 260 9.7 16.1 0.00 0.00 0.00 59 1018.5
20260830194007 18 260 3.2 9.7 0.00 0.00 0.00 61 1018.5
20260830193507 18 260 0.0 16.1 0.00 0.00 0.00 62 1018.5
20260830193006 17 260 6.4 20.9 0.00 0.00 0.00 62 1018.5
20260830192507 18 260 1.6 20.9 0.00 0.00 0.00 62 1018.5
20260830192007 18 260 6.4 20.9 0.00 0.00 0.00 63 1018.5
20260830191508 17 260 3.2 16.1 0.00 0.00 0.00 64 1018.5
20260830185506 17 260 0.0 12.9 0.00 0.00 0.00 65 1019.5
20260830185006 17 260 0.0 12.9 0.00 0.00 0.00 65 1019.5
20260830184506 17 260 0.0 3.2 0.00 0.00 0.00 66 1019.5
20260830184007 17 260 0.0 14.5 0.00 0.00 0.00 66 1019.5
20260830183507 17 260 0.0 16.1 0.00 0.00 0.00 66 1019.5
20260830182506 17 260 3.2 19.3 0.00 0.00 0.00 70 1019.5
20260830182007 16 260 0.0 0.0 0.00 0.00 0.00 70 1019.5
20260830181506 16 260 0.0 0.0 0.00 0.00 0.00 70 1019.5
20260830181006 16 260 0.0 0.0 0.00 0.00 0.00 70 1019.5
20260830180507 16 260 0.0 0.0 0.00 0.00 0.00 71 1019.5
20260830180007 16 260 0.0 0.0 0.00 0.00 0.00 71 1019.5